Location: Newark
(35.0317°N, 117.3481°W)
Time: 15:46:08
(UTC+00:00)

BEESAT 3 - Visible Passes

Search period start: 10 December 2019 00:00
Search period end: 20 December 2019 00:00
Orbit: 478 x 530 km, 64.9° (Epoch: 10 December)

Date Brightness Start Highest point End Pass type
(mag) Time Alt. Az. Time Alt. Az. Time Alt. Az.
11 Dec ? 14:06:54 10° SSE 14:09:33 18° ESE 14:12:14 10° ENE visible
12 Dec ? 01:41:13 10° W 01:42:15 11° WSW 01:43:16 10° WSW visible
12 Dec ? 13:47:39 10° SSE 13:50:08 16° ESE 13:52:39 10° ENE visible
13 Dec ? 01:21:22 10° W 01:22:49 12° WSW 01:24:16 10° SW visible
13 Dec ? 13:28:23 10° SE 13:30:42 15° ESE 13:33:02 10° ENE visible
14 Dec ? 13:09:09 10° SE 13:11:16 14° ESE 13:13:25 10° ENE visible
15 Dec ? 12:49:58 10° SE 12:51:50 13° ESE 12:53:44 10° E visible
16 Dec ? 12:30:49 10° SE 12:32:25 12° ESE 12:34:01 10° E visible
16 Dec ? 14:05:39 10° SW 14:09:22 43° WNW 14:13:09 10° NNE visible
17 Dec ? 12:11:44 10° SE 12:12:59 11° ESE 12:14:14 10° E visible
17 Dec ? 13:46:09 10° SW 13:49:54 46° WNW 13:53:44 10° NNE visible
18 Dec ? 11:52:53 10° ESE 11:53:33 10° ESE 11:54:13 10° E visible
18 Dec ? 13:27:44 18° SW 13:30:26 50° WNW 13:34:18 10° NNE visible
19 Dec ? 13:11:33 48° NNW 13:11:33 48° NNW 13:14:51 10° NNE visible
